Погода в Балаклаве

Россия / Республика Крым     44˚30′05″N   33˚36′00″E
темп.,
°C
ветер,
м/с
пор.,
м/с
влажн.,
%
обл.,
%
осадки,
мм/ч
давл.,
гПа
погр.,
м
6 декабря, вс
вс600:00+10˚сз348312 0.0 1023324
03:00+9˚зсз448426 0.0 1023393
06:00+9˚з348195 0.0 1023446
09:00+9˚з448298 0.1 1023543
12:00+8˚з2382100 0.1 1024498
15:00+8˚сз3382100 0.2 1023466
18:00+8˚сз3471100 0.1 1023606
21:00+7˚ююз237099 0.1 1023525
7 декабря, пн
пн700:00+7˚ююв237298 0.0 1022465
03:00+6˚ссв237099 0.1 1022448
06:00+4˚с237099 0.0 1021397
09:00+5˚ююв247089 0.0 1020527
12:00+8˚св556639 0.0 1020501
15:00+8˚ссв456664 0.2 1019358
18:00+9˚с23717 0.0 1019284
21:00+8˚св33743 0.0 1018145
8 декабря, вт
вт800:00+7˚всв33740 0.0 1018134
03:00+7˚св34750 0.0 1017139
06:00+7˚св34780 0.0 1016148
09:00+7˚ссв347817 0.0 1016149
12:00+10˚св2470100 0.0 1016248
15:00+13˚в3870100 0.0 1016450
18:00+12˚в597396 0.0 1016349
21:00+11˚в477597 0.0 1017182
9 декабря, ср
ср900:00+12˚юв687247 0.0 1017174
03:00+12˚юв687529 0.1 1018215
06:00+11˚ююв688474 0.2 1018567
09:00+11˚ю788487 1.2 1019687
12:00+12˚ю687866 0.1 1020912
15:00+12˚ю688265 0.3 1019777
18:00+11˚юв57880 0.0 1020464
21:00+11˚юв68860 0.0 1020307
10 декабря, чт
чт1000:00+12˚вюв68790 0.0 1021237
03:00+12˚вюв610720 0.0 1021242
06:00+12˚вюв6107142 0.0 1020233
09:00+12˚вюв7117721 0.0 1020329
12:00+13˚вюв9157233 0.0 1020603
15:00+14˚вюв8146427 0.0 1018574
18:00+12˚вюв6117290 0.0 1018303
21:00+12˚вюв7127595 0.0 1017344